Regional Weather Roundup
Issued by NWS

Home | Current Version | Previous Version | Text Only | Print | Product List | Glossary On
Versions: 1 2 3 4 5 6 7 8 9 10 11 12 13 14 15 16 17 18 19 20 21 22 23 24 25 26 27 28 29 30 31 32 33 34 35 36 37 38 39 40 41 42 43 44 45 46 47 48 49 50
000
ASUS43 KLMK 310110
RWRKY
KENTUCKY REGIONAL WEATHER ROUNDUP
NATIONAL WEATHER SERVICE LOUISVILLE KY
900 PM EDT THU JUL 30 2015

NOTE "FAIR" INDICATES FEW OR NO CLOUDS BELOW 12,000 FEET
WITH NO SIGNIFICANT WEATHER AND/OR OBSTRUCTIONS TO VISIBILITY.

KYZ001>023-026-027-061>063-070>075-310200-
WESTERN AND SOUTH CENTRAL KENTUCKY

CITY           SKY/WX    TMP DP  RH WIND       PRES   REMARKS
PADUCAH        CLEAR     79  65  62 N6        30.07S
HENDERSON      PTCLDY    77  68  73 CALM      30.05S
OWENSBORO      PTCLDY    81  64  55 CALM      30.06S
HOPKINSVILLE   CLEAR     78  62  56 NW3       30.07R
BOWLING GREEN  PTCLDY    80  60  50 N3        30.07R
GLASGOW        CLEAR    N/A N/A N/A CALM      30.06S
$$

KYZ024-025-028>034-038-045-046-053-310200-
NORTH CENTRAL KENTUCKY

CITY           SKY/WX    TMP DP  RH WIND       PRES   REMARKS
LOUISVILLE/SDF PTCLDY    81  56  42 NW9       30.04S
LOUISVILLE/LOU PTCLDY    82  56  40 N3        30.05S
FORT KNOX      PTCLDY    73  65  75 NW3       30.05S
$$

KYZ035>037-039>044-047>052-055>060-089>105-310200-
NORTHEAST KENTUCKY

CITY           SKY/WX    TMP DP  RH WIND       PRES   REMARKS
LEXINGTON      CLEAR     76  59  55 NW3       30.06S
COVINGTON      PTCLDY    78  59  50 NW6       30.04S
FRANKFORT      PTCLDY    76  62  62 CALM      30.04S
$$

KYZ054-064>069-076>088-106>120-310200-
SOUTHEAST KENTUCKY

CITY           SKY/WX    TMP DP  RH WIND       PRES   REMARKS
JACKSON        CLEAR     76  58  53 VRB3      30.06R
LONDON         CLEAR     78  57  48 NW6       30.06R
SOMERSET       CLEAR     73  57  56 N7        30.07S
MIDDLESBORO    CLEAR     76  65  68 CALM      30.05R
MONTICELLO     CLEAR     70  67  90 CALM      30.09R
$$




USA.gov is the U.S. government's official web portal to all federal, state and local government web resources and services.